Location: Highridge
(54.0333°N, 114.1333°W)
Time: 10:43:15
(UTC+00:00)

BUGSAT 1 - Visible Passes

Search period start: 30 November 2023 00:00
Search period end: 10 December 2023 00:00
Orbit: 537 x 588 km, 98.2° (Epoch: 29 November)

Date Brightness Start Highest point End Pass type
(mag) Time Alt. Az. Time Alt. Az. Time Alt. Az.
30 Nov ? 00:53:14 13° NNE 00:53:14 13° NNE 00:54:13 10° NNE visible
30 Nov ? 02:29:13 17° NNW 02:29:13 17° NNW 02:30:12 10° NNW visible
01 Dec ? 00:52:56 13° NNE 00:52:56 13° NNE 00:53:45 10° NNE visible
01 Dec ? 02:28:54 16° NNW 02:28:54 16° NNW 02:29:45 10° NNW visible
02 Dec ? 00:52:36 12° NNE 00:52:36 12° NNE 00:53:16 10° NNE visible
02 Dec ? 02:28:34 15° NNW 02:28:34 15° NNW 02:29:19 10° NNW visible
03 Dec ? 00:52:15 12° NNE 00:52:15 12° NNE 00:52:48 10° NNE visible
03 Dec ? 02:28:13 14° NNW 02:28:13 14° NNW 02:28:51 10° NNW visible
04 Dec ? 00:51:52 11° NNE 00:51:52 11° NNE 00:52:17 10° NNE visible
04 Dec ? 02:27:50 14° NNW 02:27:50 14° NNW 02:28:22 10° NNW visible
05 Dec ? 00:51:28 11° NNE 00:51:28 11° NNE 00:51:46 10° NNE visible
05 Dec ? 02:27:26 13° NNW 02:27:26 13° NNW 02:27:53 10° NNW visible
06 Dec ? 00:51:02 11° NNE 00:51:02 11° NNE 00:51:14 10° NNE visible
06 Dec ? 02:27:00 12° NNW 02:27:00 12° NNW 02:27:21 10° NNW visible
07 Dec ? 00:50:35 10° NNE 00:50:35 10° NNE 00:50:42 10° NNE visible
07 Dec ? 02:26:33 12° NNW 02:26:33 12° NNW 02:26:51 10° NNW visible
08 Dec ? 00:50:06 10° NNE 00:50:06 10° NNE 00:50:07 10° NNE visible
08 Dec ? 02:26:05 11° NNW 02:26:05 11° NNW 02:26:18 10° NNW visible
09 Dec ? 02:25:35 11° NNW 02:25:35 11° NNW 02:25:45 10° NNW visible
